Regional Weather Roundup
Issued by NWS

Home | Current Version | Previous Version | Text Only | Print | Product List | Glossary On
Versions: 1 2 3 4 5 6 7 8 9 10 11 12 13 14 15 16 17 18 19 20 21 22 23 24 25 26 27 28 29 30 31 32 33 34 35 36 37 38 39 40 41 42 43 44 45 46 47 48 49 50
000
ASUS43 KMKX 252359
RWRWI

WISCONSIN REGIONAL WEATHER ROUNDUP
NATIONAL WEATHER SERVICE MILWAUKEE/SULLIVAN WI
600 PM CST SUN JAN 25 2015

NOTE: "FAIR" INDICATES FEW OR NO CLOUDS BELOW 12,000 FEET WITH NO
SIGNIFICANT WEATHER AND/OR OBSTRUCTIONS TO VISIBILITY.

WIZ001-002-006>008-014>016-023>028-260100-
NORTHWEST WISCONSIN

CITY           SKY/WX    TMP DP  RH WIND       PRES   REMARKS
SUPERIOR ARPT  CLEAR     20  13  75 N3        30.07R
ASHLAND        CLOUDY    13   8  81 N5        30.07R WCI   5
6HR MIN TEMP:  13; 6HR MAX TEMP:  21;

HAYWARD        MOCLDY    16   7  67 CALM      30.03R
6HR MIN TEMP:  16; 6HR MAX TEMP:  23;

SIREN          CLOUDY    23  12  62 CALM      30.04R
CUMBERLAND     CLOUDY    18  10  73 S3        30.01S
RICE LAKE      CLOUDY    21  11  66 CALM      30.03S
CHETEK         CLOUDY    21  10  63 CALM      30.03R
LADYSMITH      PTCLDY    21  10  61 CALM      30.03R
EAU CLAIRE     NOT AVBL
MENOMONIE      MOCLDY    23  12  63 CALM      30.04R
NEW RICHMOND   MOCLDY    20  10  66 S3        30.04S
OSCEOLA        PTCLDY    23  12  63 S5        30.08R WCI  16
$$

WIZ003>005-009-010-017-018-260100-
NORTH CENTRAL WISCONSIN

CITY           SKY/WX    TMP DP  RH WIND       PRES   REMARKS
MANITOWISH WTR CLOUDY    14   5  68 CALM      29.98R
ARBOR VITAE    CLOUDY    19   8  61 CALM      29.98S
WOODRUFF       CLOUDY    19   8  61 CALM      29.98S
RHINELANDER    CLOUDY    17   4  56 CALM      29.98S
6HR MIN TEMP:  15; 6HR MAX TEMP:  19;

EAGLE RIVER    CLOUDY    17   4  57 CALM      29.97S
LAND O LAKES   CLOUDY    15   6  68 CALM      29.98S
PHILLIPS       CLOUDY    17   7  64 CALM      29.98S
TOMAHAWK       CLOUDY    15   7  68 CALM      29.99S
MEDFORD        CLOUDY    17   9  70 S5        29.98F WCI  10
MERRILL        CLOUDY    19   7  59 CALM      29.99S
$$

WIZ029-030-035-036-043>047-260100-
CENTRAL WISCONSIN

CITY           SKY/WX    TMP DP  RH WIND       PRES   REMARKS
WAUSAU         CLOUDY    16   6  65 CALM      30.00S
6HR MIN TEMP:  16; 6HR MAX TEMP:  22;

MOSINEE        NOT AVBL
MARSHFIELD     CLOUDY    20   9  62 E3        30.01S
6HR MIN TEMP:  19; 6HR MAX TEMP:  22;

STEVENS POINT  MOCLDY    15   5  63 CALM      30.03S
WAUPACA        CLEAR     20   8  59 CALM      30.05S
WAUTOMA        NOT AVBL
WISC RAPIDS    CLOUDY    18   5  57 SE3       30.04F
6HR MIN TEMP:  18; 6HR MAX TEMP:  22;

CAMP DOUGLAS   NOT AVBL
$$

WIZ011>013-019>022-031-037>040-048>050-260100-
NORTHEAST WISCONSIN

CITY           SKY/WX    TMP DP  RH WIND       PRES   REMARKS
ANTIGO         CLOUDY    16   6  65 CALM      29.99S
SHAWANO        PTCLDY    18   8  65 E3        30.06S
OCONTO         CLEAR     15   7  68 MISG      30.08R
STURGEON BAY   CLEAR     16   3  57 N5        30.08R WCI   9
6HR MIN TEMP:  16; 6HR MAX TEMP:  19;

GREEN BAY      CLEAR     16   9  74 NE7       30.07R WCI   6
6HR MIN TEMP:  16; 6HR MAX TEMP:  22;

MANITOWOC      NOT AVBL
APPLETON       PTCLDY    18   7  62 E6        30.05S WCI   9
CLINTONVILLE   PTCLDY    19   7  58 CALM      30.05S
OSHKOSH        CLEAR     18  10  71 NE13      30.05R WCI   5
6HR MIN TEMP:  18; 6HR MAX TEMP:  22;

$$

WIZ032>034-041-042-053>061-260100-
SOUTHWEST WISCONSIN

CITY           SKY/WX    TMP DP  RH WIND       PRES   REMARKS
LA CROSSE      PTCLDY    24  14  65 N5        30.05R WCI  18
6HR MIN TEMP:  24; 6HR MAX TEMP:  31;

SPARTA         CLOUDY    23  12  62 E6        30.04F WCI  15
VIROQUA        PTCLDY    21  12  67 NE6       30.00S WCI  14
BOSCOBEL       CLEAR     23  11  60 NE5       30.05R WCI  17
6HR MIN TEMP:  23; 6HR MAX TEMP:  29;

PRAIRIE DU CHI CLEAR     26  14  60 NE5       30.04R WCI  20
PLATTEVILLE    CLEAR     20  15  79 NW10      30.01R WCI   9
$$

WIZ056-057-062-063-064-067-068-260100-
SOUTH CENTRAL WISCONSIN

CITY           SKY/WX    TMP DP  RH WIND       PRES   REMARKS
REEDSBURG      PTCLDY    20  10  66 N7        30.04R WCI  11
BARABOO/DELLS  CLEAR     19  10  69 NE6       30.02R WCI  11
LONE ROCK      NOT AVBL
MINERAL POINT  CLEAR     21  14  73 N6        30.00R WCI  14
MADISON        PTCLDY    19  11  70 N10       30.02R WCI   7
6HR MIN TEMP:  19; 6HR MAX TEMP:  26;

MIDDLETON      CLEAR     22  13  69 N10       30.02R WCI  11
WATERTOWN      CLEAR     19  13  76 N7        30.01R WCI  10
MONROE         CLEAR     21  16  79 N14G21    29.98R WCI   8
JANESVILLE     CLEAR     25  10  54 NE12      30.00R WCI  14
$$

WIZ051-052-058>065-066-070>072-260100-
SOUTHEAST WISCONSIN

CITY           SKY/WX    TMP DP  RH WIND       PRES   REMARKS
MILWAUKEE      MOCLDY    25  13  60 N17       30.00R WCI  12
6HR MIN TEMP:  24; 6HR MAX TEMP:  26;

WAUKESHA       CLEAR     19  10  68 NE16G25   30.01R WCI   5
MILWAUKEE/TIMM NOT AVBL
RACINE         PTCLDY    25  14  63 N16G22    30.00R WCI  12
6HR MIN TEMP:  24; 6HR MAX TEMP:  29;

BURLINGTON     CLEAR     21  12  70 N10       29.98R WCI   9
KENOSHA        PTCLDY    23  15  71 N12       29.98R WCI  12
6HR MIN TEMP:  23; 6HR MAX TEMP:  28;

FOND DU LAC    CLEAR     17  10  74 NE13      30.04R WCI   4
6HR MIN TEMP:  17; 6HR MAX TEMP:  24;

SHEBOYGAN      MOCLDY    20  11  68 N8        30.03R WCI  10
6HR MIN TEMP:  20; 6HR MAX TEMP:  24;

WEST BEND      CLEAR     21  10  63 N9        30.01R WCI  11
JUNEAU         CLEAR     17  12  78 N12G17    30.02R WCI   5
$$

LSZ147-162-260100-
LAKE SUPERIOR

STATION/POSITION TIME  TEMP    WIND        PRES    WAVE
                       AIR SEA DIR/SP/G            HT/PER
                 (UTC) (F)     (DEG/KT/KT) (MB)    (FT/S)
DEVILS ISLAND    2300   20     180/  3/  4 1019.4S
PORT WING        2340   21      CALM  /  2 1019.0R
SAXON HARBOR     2300   21      CALM  /  3 1017.6
$$

LMZ867-665-643>646-260100-
LAKE MICHIGAN

STATION/POSITION TIME  TEMP    WIND        PRES    WAVE
                       AIR SEA DIR/SP/G            HT/PER
                 (UTC) (F)     (DEG/KT/KT) (MB)    (FT/S)
NORTHPORT PIER   2310   18      20/  4/  7 1018.3S
SISTER BAY       2213   23      30/  5/  9   N/A
KEWAUNEE LAKESHO 2300   21      30/ 13/ 22 1016.7R
SHEBOYGAN LAKESH 2300   23      20/ 25/ 28 1017.8R
PORT WASHINGTON  2300   24      30/ 13/ 16 1017.3R
MILWAUKEE LAKESH 2300   26      30/ 20/ 24   N/A
KENOSHA   LAKESH 2300   26      30/ 23/ 26 1014.6R
$$

TC  - TEMPERATURE IN CELSIUS
VSB - VISIBILITY IN STATUTE MILES
WCI - WIND CHILL INDEX
HX  - HEAT INDEX



USA.gov is the U.S. government's official web portal to all federal, state and local government web resources and services.